This is the latest recevied weather packets stored in our database for station/object DL9GJ-6. If no packets are shown the sender has not sent any weather packets the latest 10 day(s).
| Time | Temp. | Humidity | Pressure | Rain* | Wind** | Luminosity | Snow |
|---|---|---|---|---|---|---|---|
| 1777559397 | 16.67° C | 30% | 1023.9 hPa | 0 mm | - | 386 W/m² | - |
| 1777559088 | 16.11° C | 28% | 1023.9 hPa | 0 mm | - | 472 W/m² | - |
| 1777559038 | 16.11° C | 28% | 1023.9 hPa | 0 mm | - | 472 W/m² | - |
| 1777558679 | 16.11° C | 27% | 1024 hPa | 0 mm | - | 411 W/m² | - |
| 1777558318 | 16.11° C | 26% | 1024 hPa | 0 mm | - | 289 W/m² | - |
| 1777557959 | 16.11° C | 29% | 1024 hPa | 0 mm | - | 529 W/m² | - |
| 1777557649 | 16.11° C | 27% | 1024.1 hPa | 0 mm | - | 535 W/m² | - |
| 1777557598 | 16.11° C | 23% | 1024 hPa | 0 mm | - | 533 W/m² | - |
| 1777557238 | 16.67° C | 26% | 1024 hPa | 0 mm | - | 534 W/m² | - |
| 1777556930 | 16.11° C | 25% | 1024 hPa | 0 mm | - | 536 W/m² | - |
| 1777556877 | 16.11° C | 25% | 1024 hPa | 0 mm | - | 536 W/m² | - |
| 1777556517 | 16.11° C | 26% | 1024 hPa | 0 mm | - | 546 W/m² | - |
| 1777556157 | 16.11° C | 26% | 1024 hPa | 0 mm | - | 566 W/m² | - |
| 1777555850 | 16.11° C | 24% | 1024 hPa | 0 mm | - | 588 W/m² | - |
| 1777555797 | 15.56° C | 26% | 1024 hPa | 0 mm | - | 620 W/m² | - |
| 1777555438 | 15.56° C | 25% | 1024.1 hPa | 0 mm | - | 651 W/m² | - |
| 1777555129 | 15.56° C | 25% | 1024.1 hPa | 0 mm | - | 690 W/m² | - |
| 1777555078 | 15.56° C | 25% | 1024.1 hPa | 0 mm | - | 690 W/m² | - |
| 1777554718 | 16.11° C | 27% | 1024.1 hPa | 0 mm | - | 722 W/m² | - |
| 1777554359 | 15.56° C | 26% | 1024.3 hPa | 0 mm | - | 748 W/m² | - |
| 1777553998 | 15.56° C | 27% | 1024.4 hPa | 0 mm | - | 770 W/m² | - |
| 1777553688 | 15.56° C | 25% | 1024.4 hPa | 0 mm | - | 776 W/m² | - |
| 1777553638 | 15.56° C | 25% | 1024.4 hPa | 0 mm | - | 776 W/m² | - |
| 1777553328 | 15.56° C | 30% | 1024.4 hPa | 0 mm | - | 783 W/m² | - |
| 1777553279 | 15.56° C | 30% | 1024.4 hPa | 0 mm | - | 783 W/m² | - |
* Rain latest hour (hover to see other rain measurements)
** Current wind speed in m/s (hover to see current wind gust speed)